Location: Wiesbaden
(50.0830°N, 8.2500°E)
Time: 05:32:16
(UTC+02:00)

ISS - Pass Details

Date: 03 April 2020
Orbit: 417 x 423 km, 51.6° (Epoch: 29 March)

Event Time Altitude Azimuth Distance (km) Brightness Sun altitude
Rises 20:58:56 0° 287° (WNW) 2,363 2.4 -9.5°
Reaches altitude 10° 21:01:09 10° 277° (W) 1,497 0.5 -9.8°
Maximum altitude 21:04:12 33° 212° (SSW) 726 -2.5 -10.3°
Enters shadow 21:06:59 12° 148° (SSE) 1,394 -1.6 -10.7°
